804  
ASUS43 KFGF 180510  
RWRFGF  
PRAIRIE TO PINES WEATHER ROUNDUP  
NATIONAL WEATHER SERVICE EASTERN NORTH DAKOTA/GRAND FORKS ND  
1200 AM CDT MON OCT 18 2021  
 
**SATELLITE DATA USED TO AUGMENT SKY COVER AT AUTOMATED STATIONS**  
***** WEATHER ACROSS EASTERN NORTH DAKOTA *****  
 
CITY SKY/WX TMP DP RH WIND PRES REMARKS
 
GRAND FORKS FAIR 48 41 76 S9 29.88F  
GRAND FRKS AFB FAIR 47 41 80 S8 29.88S  
GRAND FRKS NWS N/A 50 44 78 S6 29.84S  
DEVILS LAKE FAIR 57 44 62 S13 29.86F  
FARGO FAIR 55 41 59 S8 29.91F  
WAHPETON ARPT FAIR 50 43 76 SE9 29.92F  

 
 
***** WEATHER ACROSS CENTRAL AND WESTERN NORTH DAKOTA *****  
 
CITY SKY/WX TMP DP RH WIND PRES REMARKS
 
BISMARCK FAIR 48 41 76 NE8 29.83F  
MINOT FAIR 54 43 66 SE9 29.78F  
JAMESTOWN FAIR 44 39 82 CALM 29.88F  
MINOT AFB FAIR 54 32 43 S10 29.76F  
GARRISON N/A 50 43 77 SE8 29.80F  
WILLISTON NOT AVBL  
DICKINSON FAIR 48 39 71 S12 29.76F  
HETTINGER FAIR 50 39 66 SE8 29.80F  

 
 
***** OTHER AIRPORT OBSERVATIONS IN OUR AREA *****  
 
CITY SKY/WX TMP DP RH WIND PRES REMARKS
 
WALHALLA FAIR 57 45 62 S8 29.83F  
GRAFTON AIRPOR FAIR 46 45 93 S9 29.88S  
VALLEY CITY AR N/A 48 41 76 S6 29.91F  
CANDO FAIR 46 N/A N/A SE8 29.86F  
CAVALIER APRT FAIR 48 45 87 S8 29.85S  
GWINNER CLEAR 46 46 100 SE6 29.90F  
SHEYENNE NWR N/A 48 40 74 SE5 29.95S  
ROLLA FAIR 45 43 93 S8 29.83F  
***** THE ABOVE OBSERVATIONS ARE NON NWS ARE NOT QUALITY  
CONTROLLED AND MAY MIS-REPORT RAIN FOR SNOW...  

 
 
***** WEATHER ACROSS NORTHERN MINNESOTA *****  
 
CITY SKY/WX TMP DP RH WIND PRES REMARKS
 
FLAG ISLAND FAIR 55 46 71 S12 29.90F  
WARROAD FAIR 48 41 76 S7 29.92S  
ROSEAU FAIR 50 43 76 S7 29.91S  
HALLOCK FAIR 46 45 93 S8 29.87S  
THF RVR FALLS FAIR 49 42 77 SE7 29.92F  
BAUDETTE FAIR 46 36 68 SE3 29.95S  
WASKISH FAIR 46 39 76 SE3 29.96S  
CROOKSTON FAIR 52 43 71 S10 29.90F  

 
***** WEATHER ACROSS CENTRAL AND WEST MINNESOTA *****  
 
CITY SKY/WX TMP DP RH WIND PRES REMARKS
 
FOSSTON NOT AVBL  
BEMIDJI FAIR 45 40 85 CALM 29.97S  
PARK RAPIDS FAIR 49 38 65 SE6 29.97F  
ELBOW LAKE FAIR 53 41 64 SE7 29.96F  
WADENA FAIR 45 37 76 CALM 29.97F  
DETROIT LAKES FAIR 50 43 76 SE6 29.95F  
MOORHEAD FAIR 52 43 71 CALM 29.92F  
FERGUS FALLS FAIR 54 43 66 SE9 29.92S  
MORRIS MN FAIR 48 39 71 SE7 29.97S  
STAPLES FAIR 45 39 81 CALM 29.98F  

 
***** WEATHER ELSEWHERE ACROSS MINNESOTA *****  
 
CITY SKY/WX TMP DP RH WIND PRES REMARKS
 
DULUTH FAIR 45 33 63 SW3 30.02F  
INTRNTL FALLS FAIR 36 34 92 CALM 29.97S  
ELY FAIR 34 34 100 CALM 30.02S  
CLOQUET FAIR 39 34 81 CALM 30.02S  
WHEATON FAIR 48 39 71 SE8 29.95F  
BRAINERD FAIR 43 40 89 CALM 30.01S  
HIBBING FAIR 33 29 85 CALM 30.02S  
ALEXANDRIA FAIR 50 41 71 SE8 29.99F  
SAINT CLOUD FAIR 46 38 73 CALM 30.01S  
MINNEAPOLIS FAIR 53 36 52 SE3 30.04S  

 
 
***** WEATHER ACROSS SOUTH DAKOTA *****  
 
CITY SKY/WX TMP DP RH WIND PRES REMARKS
 
SIOUX FALLS FAIR 57 39 51 S9 29.98S  
BROOKINGS FAIR 50 40 68 SE10 29.97S  
WATERTOWN FAIR 53 40 61 SE10 29.94F  
HURON FAIR 52 39 61 SE9 29.90F  
SISSETON N/A 47 42 83 SE5 29.92F  
ABERDEEN FAIR 50 40 68 SE10 29.88F  
MITCHELL FAIR 50 39 66 S9 29.93S  
PIERRE FAIR 56 37 49 S9 29.84F  
MOBRIDGE FAIR 53 40 61 E12 29.81F  
RAPID CITY FAIR 51 32 48 SE7 29.84F  

 
 
***** SOME WEATHER IN NEARBY STATES *****  
 
CITY SKY/WX TMP DP RH WIND PRES REMARKS
 
GLASGOW MT FAIR 50 38 63 E12 29.66F  
GREAT FALLS MT CLEAR 61 25 25 S23G32 29.67  
CHEYENNE WY FAIR 44 22 41 W10 30.02F  
SCOTTSBLUFF NE FAIR 48 31 51 E7 29.94F  
OMAHA NE FAIR 55 40 56 S9 30.06F  
DES MOINES IA FAIR 51 40 65 S7 30.09F  
DAVENPORT IA FAIR 46 40 79 S6 30.13F  
CHICAGO IL FAIR 50 37 61 W6 30.11S  
EAU CLAIRE WI FAIR 39 36 89 CALM 30.06F  
LA CROSSE WI FAIR 47 40 76 SE5 30.08F  

 
 
***** SOME NATIONAL WEATHER *****  
 
CITY SKY/WX TMP DP RH WIND PRES REMARKS
 
LA GUARDIA NY FAIR 55 41 59 W10 29.86R  
RALEIGH NC FAIR 48 40 73 SW3 30.14S  
ATLANTA GA FAIR 52 42 69 NW8 30.19S  
NEW ORLEANS LA FAIR 67 43 41 NE7 30.17F  
OKLAHOMA CITY FAIR 50 42 74 S6 30.16F  
ALBUQUERQUE NM FAIR 57 34 41 SE6 30.12F  
SALT LAKE CITY FAIR 57 35 43 S12 29.83F  
LOS ANGELES CA MOCLDY 61 58 90 SW8 29.98S  
BOISE ID FAIR 60 24 25 SE3 29.63F  
SEATTLE WA CLOUDY 50 45 83 NE10 29.80S  

 
 
*** WEATHER ACROSS MANITOBA...SASKATCHEWAN AND ONTARIO ***  
***ONTARIO***  
 
CITY SKY/WX TMP DP RH WIND PRES REMARKS
 
GERALDTON PTCLDY 30 28 93 CALM 29.98R  
THUNDER BAY CLEAR 34 34 100 W3 30.01S  
SIOUX LOOKOUT CLEAR 39 37 93 SE5 29.97S  
TORONTO PTCLDY 46 45 93 W12 29.87S  
BIG TROUT LK N/A 34 N/A N/A SW2 29.91F  
PICKLE LAKE CLEAR 36 32 87 SW7 29.96S  
DRYDEN CLEAR 48 39 71 S8 29.96S  
KENORA CLEAR 50 37 62 S7 29.92F  

 
*** MANITOBA***  
 
CITY SKY/WX TMP DP RH WIND PRES REMARKS
 
BRANDON CLEAR 46 39 76 NW3 29.78F  
DAUPHIN CLEAR 63 43 48 SW16 29.69F  
ISLAND LAKE CLEAR 50 37 62 SE14G23 29.78F  
PILOT MOUND N/A 48 43 81 S9 N/A  
THE PAS CLEAR 45 39 81 SE7 29.62S  
THOMPSON PTCLDY 43 36 75 VRB2 29.65F  
WINNIPEG CLEAR 52 45 76 S14 29.81F  
LYNN LAKE CLEAR 41 37 87 SW5 29.56F  
CHURCHILL CLOUDY 36 32 87 SE7 29.78R  
GILLAM MOCLDY 39 34 81 S6 29.74F  

 
***SASKATCHEWAN***  
 
CITY SKY/WX TMP DP RH WIND PRES REMARKS
 
ESTEVAN CLEAR 48 37 66 SE9 29.73F  
KINDERSLEY PTCLDY 50 23 34 S10 29.53S  
LLOYDMINSTER CLEAR 46 36 66 NE12 29.53F  
PRINCE ALBERT MOCLDY 36 30 80 SE5 29.60F  
REGINA CLEAR 46 36 66 SE12 29.66F  
YORKTON CLEAR 52 39 62 S10 29.68F  
N. BATTLEFORD CLEAR 52 32 46 E12 29.52F  
LA RONGE CLEAR 37 34 87 W5 29.66S  
SASKATOON MOCLDY 52 34 50 SE10 29.54F  
SWIFT CURRENT CLEAR 52 27 37 S14 29.59S  

 
NOTE: THESE ARE AUTOMATED STATIONS WITH LIMITED QUALITY CONTROL  
"FAIR" INDICATES FEW OR NO CLOUDS BELOW 12,000 FEET WITH NO  
SIGNIFICANT WEATHER AND/OR S TO VISIBILITY
.  
SKY/WX - SKY CONDITION AND SIGNIFICANT WEATHER.  
TMP - AIR TEMPERATURE. DP - DEWPOINT TEMPERATURE.  
RH - RELATIVE HUMIDITY. PRES - PRESSURE.  
HX - HEAT INDEX. WCI - WIND CHILL INDEX.  
$  
 
 
CLICK HERE TO GO TO PREVIOUS BULLETINS.

The Nexlab ND Page
The Nexlab MN Page Main Text Page